Retour au catalogue

CZ-4 DEB

ActifSSO
NORAD 26351·DEBRIS·🇨🇳 China

Lancé Oct 14, 1999 depuis Taiyuan Satellite Launch Center

Loading…

Prochains Passages (prochaines 24 heures)

TLE

FraisSource: Space-Track

Époque: Sep 14, 2026, 00:48 UTC

1 26351U 99057JL  26257.03334419  .00000663  00000-0  16718-3 0  9997
2 26351  98.6135 286.1801 0056499 115.3547 245.3513 14.53564094397403

Suivez CZ-4 DEB en temps réel avec AllMySat

Download on the App Store